Vorticity
-3 9 8 5 3 5 8 16 4 10 -1 11 1 2 -4 19 6 9 15 9 1 2 1 4 2 3 6 7 6 5 5 4 4 4 4 6 4 4 4 5 5 4 4 5 8 11 10 9 9
5 6 5 5 4 6 17 4 12 7 13 14 1 10 -13 2 -12 39 6 11 -0 3 1 3 3 4 7 5 3 4 6 7 7 7 7 6 6 5 5 6 6 4 4 8 9 9 8 8 4
9 4 5 10 15 6 9 11 1 10 12 7 -5 8 6 20 7 42 9 6 5 3 1 3 3 6 6 4 4 5 7 6 7 6 5 6 6 6 4 4 3 6 9 10 10 7 8 5 7
7 7 5 5 7 7 6 11 16 12 -2 -6 9 -18 -4 6 10 27 14 4 4 3 1 3 4 6 6 5 5 5 5 6 7 6 6 6 6 3 3 5 6 8 10 8 9 7 3 10 7
7 8 4 7 17 10 13 9 14 5 9 8 12 6 19 8 6 24 10 3 2 3 1 4 4 8 6 6 3 5 6 5 6 6 6 5 3 3 6 6 8 10 7 0 7 6 7 5 8
1 6 4 12 9 4 10 2 9 5 12 2 14 -3 2 8 24 12 8 4 4 2 1 4 6 8 6 4 4 5 5 5 5 5 3 3 5 6 7 11 11 10 7 8 5 6 7 6 6
4 5 4 8 6 9 9 9 0 6 5 9 9 9 -1 8 29 4 8 4 3 2 2 6 9 6 5 5 5 5 5 5 6 4 4 7 7 8 10 11 11 13 8 9 6 7 5 5 4
-2 8 10 11 14 12 17 6 3 2 7 1 7 15 8 21 20 1 8 2 2 2 2 8 7 5 4 5 6 5 6 7 3 5 6 7 7 8 7 9 5 12 13 9 7 5 9 5 4
4 3 8 8 11 19 8 -0 39 0 -7 9 11 7 23 27 8 4 5 2 2 1 3 8 6 4 5 6 5 4 6 5 4 6 5 7 7 7 3 11 5 6 8 8 5 8 10 8 5
-3 4 7 3 7 12 10 10 -2 -2 11 19 13 18 23 17 6 8 2 3 1 2 5 6 5 4 6 6 6 6 5 4 4 6 4 4 11 4 1 9 4 3 7 10 6 2 5 -1 8
21 -2 8 15 14 19 8 12 7 11 6 6 4 20 15 11 6 9 3 5 2 3 6 6 5 5 6 5 5 5 6 5 8 4 6 4 6 4 8 7 8 6 5 10 6 5 3 1 -1
-3 16 7 4 12 3 1 6 5 3 8 5 6 5 6 26 8 7 7 4 3 3 8 5 6 7 6 4 5 6 7 6 6 6 6 2 5 5 10 4 5 8 10 6 3 9 4 8 2
2 1 17 24 1 -3 -1 0 7 5 5 6 12 5 15 19 9 8 9 3 3 4 10 6 7 6 3 3 5 6 4 6 6 6 4 6 3 5 5 8 8 8 9 10 7 3 8 7 8
20 5 -9 2 2 2 -6 5 8 14 2 0 2 14 16 16 12 11 7 4 4 5 10 8 6 4 3 4 6 6 4 6 3 8 0 4 5 5 7 4 10 8 5 12 12 7 7 8 15
-6 7 15 11 -7 -1 9 14 11 10 8 7 6 7 17 14 9 4 8 7 3 5 8 8 5 4 4 4 5 6 3 6 3 2 6 3 5 7 9 7 10 9 3 8 6 16 11 7 14
11 5 7 21 5 2 2 25 10 16 9 12 14 10 21 11 11 6 10 7 4 5 8 6 4 4 3 4 5 7 11 9 -2 3 4 8 5 8 3 7 6 10 4 9 7 12 2 4 18
17 8 3 -4 19 -5 2 12 7 9 8 -2 4 13 19 11 11 7 7 6 3 5 8 6 4 4 3 4 4 6 6 7 -0 9 2 4 7 5 6 5 8 7 7 5 8 7 -0 8 6
6 7 18 3 16 7 6 -9 12 5 10 9 9 11 14 14 9 9 6 6 4 5 8 5 4 3 3 3 4 5 3 6 5 3 4 4 7 6 4 5 6 8 13 1 8 11 11 6 8
24 8 6 16 -11 18 1 3 -4 1 10 6 9 10 14 15 14 10 8 5 5 5 7 5 4 3 3 3 4 3 5 5 5 3 6 4 5 6 8 8 5 7 9 8 7 11 15 12 9
-2 4 11 5 13 8 11 5 1 6 5 -4 -8 16 6 14 12 10 8 3 4 7 6 7 5 3 3 3 3 4 3 5 6 5 3 5 4 7 8 7 5 8 5 11 10 5 12 14 11
7 6 -1 -5 10 13 12 15 6 2 6 4 -1 1 17 8 14 10 8 6 3 5 6 8 5 5 3 4 3 3 2 2 4 7 4 5 6 7 7 6 7 6 7 7 11 12 7 4 8
5 9 7 4 -5 19 11 12 12 0 7 8 3 -0 8 12 13 15 11 9 5 3 7 6 8 4 5 3 4 3 3 4 5 7 6 4 6 7 7 5 6 5 6 6 11 13 9 9 7
3 1 15 12 9 -3 -4 12 15 14 -4 8 4 1 7 10 7 10 15 11 11 6 3 7 5 7 5 4 4 4 3 5 6 5 6 6 6 7 6 5 6 7 7 7 7 11 11 7 8
23 7 16 10 14 33 10 -19 32 -1 10 3 9 6 1 4 9 8 10 16 9 11 7 5 8 5 6 6 5 4 4 6 6 4 6 4 5 6 5 5 5 6 6 8 7 7 8 8 7
-18 17 9 15 24 -5 23 9 -23 32 0 18 9 9 2 -1 19 9 7 7 20 10 12 8 9 8 6 7 7 6 5 6 5 5 6 5 5 5 7 5 5 6 6 9 7 6 6 6 7
16 -10 -40 8 11 19 14 10 17 -4 2 27 9 14 11 5 8 12 10 2 13 18 17 11 11 9 9 9 8 6 6 6 6 5 6 6 5 6 8 6 6 7 7 8 7 5 5 6 6
30 22 -3 -22 13 24 34 -12 25 39 19 -23 8 3 4 3 10 15 13 11 11 8 17 14 13 15 9 10 11 8 7 5 5 6 6 6 5 6 7 6 7 6 7 8 7 6 4 4 5
-19 2 26 9 9 -6 26 15 9 -1 18 9 18 -16 18 9 -2 12 12 16 11 8 1 18 10 16 12 11 11 10 7 6 5 5 6 6 6 6 7 6 6 7 9 8 8 8 5 4 4
20 12 4 15 -4 -12 13 20 15 11 27 -0 16 20 -5 5 6 16 8 3 9 16 3 -3 18 12 13 12 13 10 8 7 6 5 6 6 6 7 7 6 5 8 9 9 8 8 8 5 2
-1 12 35 -18 28 23 -39 6 -40 6 34 19 5 17 17 6 4 -1 16 21 23 8 14 1 5 7 20 9 10 12 11 8 7 7 6 6 6 7 7 6 6 8 7 8 10 7 7 8 6
Height
3162 3163 3164 3166 3173 3168 3167 3168 3167 3168 3170 3170 3172 3176 3180 3179 3181 3184 3184 3187 3189 3192 3195 3197 3200 3202 3204 3205 3207 3208 3210 3211 3212 3213 3214 3214 3214 3215 3216 3216 3216 3216 3216 3216 3215 3215 3215 3214 3214
3163 3164 3165 3166 3168 3167 3166 3167 3167 3170 3170 3171 3173 3174 3178 3179 3179 3179 3183 3187 3191 3195 3198 3200 3201 3203 3205 3207 3208 3210 3212 3212 3213 3214 3214 3216 3216 3217 3217 3217 3217 3217 3217 3216 3216 3215 3215 3215 3215
3164 3164 3166 3165 3165 3166 3166 3166 3166 3168 3170 3173 3174 3176 3178 3178 3180 3181 3184 3187 3192 3196 3199 3201 3202 3204 3207 3209 3211 3212 3213 3214 3215 3216 3217 3217 3218 3218 3218 3218 3218 3218 3217 3217 3216 3216 3216 3216 3215
3164 3166 3166 3165 3164 3165 3165 3164 3164 3166 3169 3171 3175 3178 3178 3179 3181 3183 3186 3190 3195 3198 3200 3202 3204 3206 3208 3210 3212 3213 3215 3216 3217 3217 3218 3219 3220 3220 3220 3220 3220 3219 3219 3219 3218 3218 3218 3218 3218
3164 3165 3163 3163 3164 3165 3163 3163 3165 3166 3170 3173 3174 3176 3177 3179 3180 3183 3188 3191 3196 3199 3202 3203 3205 3208 3209 3211 3213 3215 3217 3218 3219 3219 3220 3221 3222 3222 3221 3221 3220 3220 3220 3220 3220 3220 3220 3221 3221
3165 3165 3165 3163 3163 3165 3166 3164 3165 3166 3169 3171 3174 3176 3177 3178 3180 3183 3189 3193 3197 3200 3202 3204 3206 3208 3211 3213 3215 3217 3218 3220 3221 3221 3222 3222 3223 3223 3222 3221 3221 3221 3222 3221 3222 3222 3222 3222 3222
3164 3166 3165 3164 3163 3163 3165 3164 3166 3167 3170 3172 3173 3174 3177 3178 3180 3185 3189 3193 3197 3200 3202 3205 3207 3209 3212 3214 3216 3218 3220 3221 3222 3224 3224 3225 3225 3225 3224 3223 3222 3223 3223 3223 3223 3223 3224 3225 3225
3164 3166 3164 3164 3164 3165 3164 3164 3166 3164 3170 3170 3172 3173 3175 3176 3180 3185 3190 3193 3197 3200 3202 3205 3208 3210 3212 3215 3217 3219 3221 3223 3224 3225 3225 3226 3227 3227 3226 3225 3225 3225 3226 3225 3225 3226 3226 3227 3227
3163 3165 3165 3165 3165 3165 3164 3164 3164 3167 3168 3171 3171 3172 3171 3175 3179 3184 3188 3193 3197 3200 3202 3206 3209 3211 3214 3216 3218 3220 3223 3225 3225 3226 3226 3227 3227 3228 3228 3227 3228 3227 3227 3227 3227 3228 3228 3229 3230
3161 3166 3165 3165 3166 3166 3163 3164 3166 3170 3170 3170 3171 3170 3171 3175 3179 3183 3187 3193 3197 3200 3203 3206 3209 3212 3215 3217 3219 3222 3224 3225 3226 3227 3228 3228 3229 3229 3230 3231 3230 3230 3229 3229 3229 3230 3231 3232 3233
3163 3165 3164 3165 3165 3165 3164 3165 3168 3171 3171 3171 3171 3172 3174 3176 3181 3185 3189 3195 3198 3201 3204 3207 3210 3213 3216 3218 3221 3223 3225 3226 3227 3228 3229 3230 3230 3231 3231 3231 3231 3231 3232 3233 3231 3232 3235 3234 3237
3161 3163 3163 3164 3164 3165 3166 3168 3169 3169 3172 3171 3172 3172 3175 3178 3182 3185 3190 3195 3198 3202 3205 3208 3211 3214 3216 3218 3222 3224 3226 3227 3228 3230 3231 3231 3232 3233 3233 3233 3233 3233 3233 3233 3233 3233 3234 3234 3235
3158 3162 3161 3161 3163 3166 3165 3167 3167 3168 3170 3171 3172 3174 3176 3179 3183 3187 3192 3196 3199 3203 3205 3208 3211 3215 3217 3219 3222 3224 3226 3228 3230 3231 3232 3233 3234 3234 3234 3234 3234 3234 3234 3234 3234 3234 3234 3234 3234
3158 3159 3160 3161 3164 3165 3165 3168 3167 3169 3169 3171 3172 3173 3176 3179 3184 3187 3191 3195 3198 3203 3206 3209 3212 3215 3218 3220 3223 3225 3227 3229 3231 3232 3233 3234 3235 3235 3236 3236 3235 3236 3236 3235 3234 3234 3234 3236 3234
3155 3158 3159 3159 3160 3164 3165 3167 3167 3166 3168 3169 3171 3173 3175 3178 3183 3187 3191 3195 3198 3203 3206 3209 3213 3215 3218 3221 3223 3225 3227 3230 3231 3233 3234 3235 3237 3237 3237 3236 3237 3237 3237 3236 3235 3234 3235 3238 3237
3152 3155 3157 3158 3159 3163 3164 3163 3165 3165 3167 3168 3169 3171 3174 3176 3181 3186 3191 3194 3197 3202 3205 3209 3213 3215 3218 3221 3223 3226 3227 3229 3232 3233 3234 3236 3237 3238 3238 3238 3238 3238 3238 3237 3237 3239 3237 3237 3239
3149 3149 3152 3155 3156 3161 3162 3162 3162 3164 3166 3168 3169 3170 3173 3176 3178 3184 3189 3193 3196 3201 3205 3208 3212 3215 3218 3221 3223 3225 3227 3230 3232 3234 3235 3237 3238 3239 3239 3240 3239 3239 3239 3239 3240 3239 3238 3239 3242
3144 3146 3148 3151 3154 3157 3160 3161 3160 3162 3164 3166 3168 3169 3171 3174 3177 3182 3187 3190 3194 3199 3203 3206 3211 3214 3217 3220 3223 3225 3228 3230 3232 3234 3236 3237 3238 3239 3240 3241 3241 3241 3240 3241 3240 3239 3240 3243 3244
3142 3144 3146 3149 3152 3155 3157 3159 3160 3160 3162 3164 3166 3168 3170 3173 3178 3180 3184 3188 3192 3196 3200 3204 3208 3212 3216 3220 3223 3226 3228 3230 3232 3234 3236 3238 3239 3240 3241 3242 3242 3242 3241 3241 3241 3242 3241 3241 3241
3140 3142 3144 3147 3149 3151 3153 3155 3158 3157 3159 3162 3164 3166 3168 3170 3173 3177 3181 3184 3189 3194 3198 3202 3206 3210 3214 3218 3222 3225 3227 3229 3231 3233 3236 3238 3239 3240 3241 3242 3242 3242 3242 3242 3242 3243 3243 3243 3243
3134 3138 3142 3145 3146 3146 3149 3148 3151 3155 3156 3157 3160 3163 3166 3167 3171 3174 3177 3181 3186 3190 3195 3199 3203 3208 3212 3216 3219 3223 3225 3227 3230 3232 3235 3237 3239 3240 3241 3242 3243 3243 3243 3243 3243 3243 3244 3245 3245
3131 3135 3139 3142 3144 3143 3145 3140 3144 3149 3152 3153 3156 3159 3162 3165 3168 3172 3176 3178 3182 3187 3192 3196 3200 3205 3209 3213 3217 3221 3225 3227 3229 3231 3234 3236 3238 3239 3241 3241 3243 3244 3244 3244 3244 3244 3245 3245 3247
3127 3132 3135 3138 3139 3141 3139 3141 3134 3141 3146 3149 3152 3156 3159 3161 3165 3168 3172 3176 3180 3184 3188 3193 3197 3201 3205 3209 3214 3218 3222 3225 3227 3229 3232 3234 3237 3239 3240 3241 3243 3244 3245 3245 3245 3245 3246 3247 3248
3123 3127 3131 3133 3135 3131 3131 3134 3128 3131 3138 3145 3149 3152 3155 3158 3161 3165 3169 3172 3176 3180 3184 3189 3193 3196 3200 3205 3210 3214 3218 3222 3225 3228 3231 3233 3235 3237 3238 3240 3242 3244 3245 3245 3246 3246 3247 3248 3249
3119 3122 3122 3125 3121 3112 3123 3126 3125 3129 3134 3140 3145 3148 3151 3154 3156 3160 3164 3167 3170 3174 3178 3183 3188 3192 3196 3201 3205 3210 3215 3219 3223 3226 3229 3231 3234 3236 3237 3238 3240 3242 3244 3245 3246 3247 3247 3249 3250
3110 3113 3108 3105 3101 3106 3116 3106 3114 3127 3130 3133 3139 3144 3147 3148 3151 3155 3159 3163 3167 3170 3173 3177 3182 3187 3192 3197 3202 3206 3211 3215 3219 3223 3226 3230 3232 3234 3235 3237 3239 3240 3243 3245 3246 3246 3247 3249 3251
3104 3104 3107 3105 3101 3097 3097 3106 3115 3117 3121 3127 3131 3137 3142 3142 3146 3150 3154 3158 3163 3166 3169 3173 3177 3183 3187 3191 3197 3202 3207 3210 3214 3219 3223 3226 3229 3231 3233 3235 3237 3239 3241 3243 3245 3246 3248 3249 3250
3097 3103 3105 3104 3100 3093 3095 3096 3101 3109 3114 3119 3124 3130 3135 3138 3141 3145 3148 3153 3158 3162 3166 3169 3173 3178 3183 3187 3192 3197 3202 3206 3210 3214 3218 3222 3226 3228 3230 3232 3234 3237 3239 3241 3243 3245 3247 3249 3250
3095 3095 3096 3096 3098 3090 3091 3090 3097 3102 3107 3111 3116 3123 3129 3133 3136 3140 3144 3148 3153 3157 3161 3165 3169 3173 3178 3183 3187 3192 3197 3202 3206 3209 3214 3218 3222 3225 3228 3230 3232 3234 3237 3238 3241 3243 3245 3247 3249
3085 3088 3090 3089 3090 3089 3088 3085 3093 3099 3101 3105 3111 3116 3123 3128 3131 3136 3139 3142 3145 3150 3154 3159 3164 3168 3173 3178 3182 3187 3193 3197 3200 3204 3209 3213 3217 3221 3224 3227 3229 3232 3234 3236 3238 3240 3242 3244 3247